Regional Weather Roundup
Issued by NWS

Home | Current Version | Previous Version | Graphics & Text | Print | Product List | Glossary On
Versions: 1 2 3 4 5 6 7 8 9 10 11 12 13 14 15 16 17 18 19 20 21 22 23 24 25 26 27 28 29 30 31 32 33 34 35 36 37 38 39 40 41 42 43 44 45 46 47 48 49 50
000
ASUS43 KDTX 232001
RWRMI
MICHIGAN HOURLY REGIONAL WEATHER ROUNDUP
NATIONAL WEATHER SERVICE DETROIT/PONTIAC MI
400 PM EDT SUN APR 23 2017

NOTE: "FAIR" INDICATES FEW OR NO CLOUDS BELOW 12,000 FEET WITH NO
SIGNIFICANT WEATHER AND/OR OBSTRUCTION TO VISIBILITY.

MIZ047>049-052>055-059>063-066>070-074>076-081>083-232100-
SOUTHEAST LOWER MICHIGAN

CITY           SKY/WX    TMP DP  RH WIND       PRES   REMARKS
ADRIAN         SUNNY     67  38  34 E8        30.06F
ALMA           SUNNY     68  33  26 S5        30.04F
ANN ARBOR      SUNNY     68  33  27 CALM      30.04F
BAD AXE        SUNNY     55  39  56 NE12G20   30.07S
CARO           SUNNY     68  32  27 N3        30.03S
DETROIT CITY   SUNNY     65  34  31 SE10      30.05F
DETROIT        MOSUNNY   66  35  31 S13       30.07S
FLINT          SUNNY     67  30  25 W5        30.05F
GROSSE ILE     SUNNY     55  43  62 S9        30.07F
HILLSDALE      SUNNY     66  32  28 N5        30.05S
HOWELL         SUNNY     67  18  14 NW6       30.05S

CITY           SKY/WX    TMP DP  RH WIND       PRES   REMARKS
JACKSON        SUNNY     68  33  27 S3        30.05F
LAMBERTVILLE   SUNNY     63  23  21 E6        30.07F
LANSING        SUNNY     69  29  22 VRB3      30.06S
LAPEER         FAIR      68  24  19 CALM      30.04F
MASON          SUNNY     67  33  27 N5        30.05F
MONROE         SUNNY     61  30  31 S10       30.07F
MT. CLEMENS    MOSUNNY   63  35  35 SE13      30.04F
PONTIAC        MOSUNNY   68  27  21 N6        30.03F
PORT HOPE        N/A     45  39  79 NE9       30.07F
PORT HURON     SUNNY     68  28  22 NW8       30.04S
TRI CITIES     SUNNY     69  33  26 W12       30.03F
MIDLAND        FAIR      71  31  22 NW12G17   30.01F
TROY           SUNNY     69  24  18 NE3       30.06S
SAGINAW HB     SUNNY     70  28  21 SW5       30.02F
$$
MIZ043>046-050>051-056>058-064>065-071>073-077>080-232100-
SOUTHWEST LOWER MICHIGAN

CITY           SKY/WX    TMP DP  RH WIND       PRES   REMARKS
BATTLE CREEK   SUNNY     68  26  20 W8        30.06F
BENTON HARBOR  SUNNY     64  25  22 NW6       30.07F
BIG RAPIDS     SUNNY     68  31  25 W9G21     30.02F
COLDWATER      SUNNY     67  32  27 E7        30.05F
FREMONT        FAIR      69  30  23 W9        30.04F
HOLLAND        SUNNY     63  31  30 NW9       30.08F
GRAND RAPIDS   MOSUNNY   67  29  24 CALM      30.05F
IONIA          FAIR      68  28  22 NW5       30.04F
KALAMAZOO      SUNNY     69  26  20 N8        30.06S
LUDINGTON      SUNNY     54  40  59 NW8       30.07S
MARSHALL       SUNNY     70  26  18 NW5       30.05S
MOUNT PLEASANT SUNNY     69  32  25 W6        30.02F
MUSKEGON       MOSUNNY   64  33  31 W7        30.07F
SOUTH HAVEN    SUNNY     63  28  27 NW7       30.07F
$$
MIZ016>042-232100-
NORTHERN LOWER MICHIGAN

CITY           SKY/WX    TMP DP  RH WIND       PRES   REMARKS
ALPENA         SUNNY     52  35  52 N20       30.09R
BEAVER ISLAND  CLOUDY    43  29  57 N10       30.15F
BELLAIRE       PTSUNNY   48  32  53 N10G17    30.11S
CADILLAC       SUNNY     62  39  43 N12       30.04S
CHARLEVOIX     SUNNY     41  34  76 N10       30.18R
FRANKFORT      MOSUNNY   45  33  62 N15G23    30.11R
GAYLORD        PTSUNNY   57  35  43 NW8       30.06S
GRAYLING       SUNNY     63  37  38 NW8       30.05S
HARBOR SPRINGS PTSUNNY   47  32  56 N12G17    30.12S
HOUGHTON LAKE  SUNNY     65  37  35 W9        30.03F
MANISTEE       SUNNY     52  39  61 NW14      30.07S
OSCODA         SUNNY     52  37  55 NE17      30.06F
PELLSTON       CLOUDY    46  31  55 NW14      30.13S
ROGERS CITY    CLOUDY    44  32  61 NW14G20   30.13S
TRAVERSE CITY  MOSUNNY   45  33  63 NE14      30.11S
$$
MIZ007>008-015-232100-
EASTERN UPPER MICHIGAN

CITY           SKY/WX    TMP DP  RH WIND       PRES   REMARKS
KINROSS        SUNNY     39  24  55 NW17      30.13S WCI  30
MACKINAC ISLAN PTSUNNY   45  27  49 N9        30.13R
NEWBERRY       SUNNY     36  23  58 N9G18     30.16S WCI  29
S. S. MARIE    SUNNY     39  26  59 W15       30.13S WCI  31
MUNISING         N/A     34  22  61 N15       30.20S WCI  24
$$
MIZ004>006-011>014-085-232100-
CENTRAL UPPER MICHIGAN

CITY           SKY/WX    TMP DP  RH WIND       PRES   REMARKS
MANISTIQUE     SUNNY     42  26  52 N15G21    30.15F
ESCANABA       CLOUDY    40  27  59 N10       30.18S WCI  33
MENOMINEE      MOSUNNY   42  32  67 E17G24    30.16S
SAWYER-GWINN   MOSUNNY   34  21  60 N14       30.19S WCI  24
$$
MIZ001>003-009>011-084-232100-
WESTERN UPPER MICHIGAN

CITY           SKY/WX    TMP DP  RH WIND       PRES   REMARKS
IRON MOUNTAIN  LGT RAIN  41  27  57 N7        30.13F
HOUGHTON       CLOUDY    34  25  69 SE8       30.18F WCI  27
COPPER HARBOR    N/A     33  20  58 NE7       30.22F WCI  27
IRONWOOD       CLOUDY    38  31  76 N3        30.14F
$$

ABBREVIATIONS USED IN REMARKS
   TC - TEMPERATURE IN CELSIUS
  WCI - WIND CHILL INDEX
   HX - HEAT INDEX
  VSB - VISIBILITY





USA.gov is the U.S. government's official web portal to all federal, state and local government web resources and services.